Weather History for KFCM - November, 2012

Change the Weather History Date:

Thursday, November 15, 2012

  Actual Average Record
Temperature  
Mean Temperature 41 °F -  
Max Temperature 52 °F 41 °F 64 °F (2001)
Min Temperature 28 °F 27 °F 3 °F (2014)
Degree Days  
Heating Degree Days 24    
Moisture  
Dew Point 25 °F    
Average Humidity 54    
Maximum Humidity 73    
Minimum Humidity 40    
Precipitation  
Precipitation 0.00 in - - ()
Sea Level Pressure  
Sea Level Pressure 30.27 in    
Wind  
Wind Speed 7 mph (WNW)    
Max Wind Speed 14 mph    
Max Gust Speed -    
Visibility 10 miles    
Events      
Averages and records for this station are not official NWS values.
T = Trace of Precipitation, MM = Missing Value Source: NWS Daily Summary

Daily Weather History Graph

Daily Weather History Graph

Search for Another Location

Airport or City:

Trip Planner

Search our weather history database for the weather conditions in past years. The results will help you decide how hot, cold, wet, or windy it might be!

Date:

Astronomy

Nov. 15, 2012 Rise Set
Actual Time 7:11 AM CST 4:44 PM CST
Civil Twilight 6:40 AM CST 5:16 PM CST
Nautical Twilight 6:04 AM CST 5:52 PM CST
Astronomical Twilight 5:29 AM CST 6:26 PM CST
Moon 9:11 AM CST (11/15) 6:34 PM CST (11/15)
Length of Visible Light 10h 36m
Length of Day
9h 33m
Waxing Crescent, 5% of the Moon is Illuminated
Nov 15
Waxing Crescent
Nov 20
First Quarter
Nov 28
Full
Dec 6
Last Quarter
Dec 13
New

Hourly Weather History & Observations

Time (CST) Temp. Windchill Dew Point Humidity Pressure Visibility Wind Dir Wind Speed Gust Speed Precip Events Conditions
12:53 AM 41.0 °F 36.4 °F 32.0 °F 70% 30.14 in 10.0 mi South 6.9 mph - N/A   Scattered Clouds
1:53 AM 42.1 °F 38.4 °F 32.0 °F 67% 30.14 in 10.0 mi South 5.8 mph - N/A   Overcast
2:53 AM 43.0 °F 38.2 °F 30.0 °F 60% 30.14 in 10.0 mi South 8.1 mph - N/A   Overcast
3:53 AM 43.0 °F 37.7 °F 30.0 °F 60% 30.12 in 10.0 mi SSW 9.2 mph - N/A   Overcast
4:53 AM 43.0 °F 37.7 °F 30.0 °F 60% 30.13 in 10.0 mi SSW 9.2 mph - N/A   Overcast
5:53 AM 41.0 °F 37.1 °F 30.0 °F 65% 30.14 in 10.0 mi SW 5.8 mph - N/A   Overcast
6:53 AM 39.9 °F 35.1 °F 30.0 °F 68% 30.16 in 10.0 mi SW 6.9 mph - N/A   Overcast
7:53 AM 37.9 °F 35.5 °F 30.0 °F 73% 30.19 in 10.0 mi SW 3.5 mph - N/A   Scattered Clouds
8:53 AM 41.0 °F 38.0 °F 30.9 °F 67% 30.21 in 10.0 mi WSW 4.6 mph - N/A   Partly Cloudy
9:53 AM 45.0 °F 42.6 °F 30.9 °F 58% 30.23 in 10.0 mi West 4.6 mph - N/A   Clear
10:53 AM 46.9 °F - 33.1 °F 59% 30.24 in 10.0 mi WNW 6.9 mph - N/A   Clear
11:53 AM 48.9 °F - 33.1 °F 54% 30.25 in 10.0 mi NW 5.8 mph - N/A   Clear
12:53 PM 51.1 °F - 30.9 °F 46% 30.25 in 10.0 mi WNW 11.5 mph - N/A   Clear
1:53 PM 52.0 °F - 30.9 °F 45% 30.26 in 10.0 mi NNW 13.8 mph - N/A   Clear
2:53 PM 50.0 °F - 30.9 °F 48% 30.28 in 10.0 mi NW 11.5 mph - N/A   Clear
3:53 PM 48.0 °F - 27.0 °F 44% 30.31 in 10.0 mi NNW 11.5 mph - N/A   Clear
4:53 PM 44.1 °F 37.7 °F 23.0 °F 43% 30.34 in 10.0 mi NNW 12.7 mph - N/A   Clear
5:53 PM 41.0 °F 35.2 °F 18.0 °F 40% 30.38 in 10.0 mi North 9.2 mph - N/A   Clear
6:53 PM 37.9 °F 32.1 °F 16.0 °F 41% 30.40 in 10.0 mi North 8.1 mph - N/A   Clear
7:53 PM 36.0 °F 30.3 °F 15.1 °F 43% 30.43 in 10.0 mi North 6.9 mph - N/A   Clear
8:53 PM 33.1 °F 27.7 °F 12.9 °F 43% 30.44 in 10.0 mi North 5.8 mph - N/A   Clear
9:53 PM 32.0 °F 25.6 °F 12.0 °F 44% 30.45 in 10.0 mi North 6.9 mph - N/A   Clear
10:53 PM 30.0 °F 24.1 °F 10.9 °F 45% 30.46 in 10.0 mi North 5.8 mph - N/A   Clear
11:53 PM 28.9 °F 22.8 °F 10.9 °F 47% 30.48 in 10.0 mi North 5.8 mph - N/A   Clear